Find Beidou DW 21

NORAD ID: 41315 Int'l Des: 2016-006 Owner: CNSA Country: CN Constellation: BeiDou operational
MEOCIRCULAR

Live Position

Loading 3D Globe...

About Beidou DW 21

Description loading...

Upcoming Passes

Passes for default location (London). Set your location on the main map for personalized predictions.

Altitude History

Loading altitude history...

Two-Line Element Set

1 41315U 16006A 26104.13431802 .00000005 00000-0 00000+0 0 9996
2 41315 56.6523 65.7460 0005163 299.6680 60.2618 1.86231229 69402
Epoch: Apr 14, 2026 • Age: 43 hours

Current Status

Altitude 21547.1 km
Velocity 3.78 km/s
Sub-Earth Point 42.67°N, 28.45°E
Launch Date Feb 1, 2016
Age 10.2 years
Type navigation

Technical Details

Classification Payload
Mass 1014.00 kg
Dry Mass 850.00 kg
Total Mass 1014.00 kg
Length 2.20 m
Diameter 1.70 m
Span 10.00 m
Shape Box + 2 Pan
Manufacturer SECM
Bus Type BD-3M2
Phase Status In Orbit
Owner/State CNSA/CN

Most Searched